Location: Fluertsh�userhof
(48.7537°N, 10.3850°E)
Time: 06:08:17
(UTC+00:00)

KORONAS-FOTON - Pass Details

Date: 18 September 2020
Orbit: 505 x 532 km, 82.4° (Epoch: 27 October)

Event Time Altitude Azimuth Distance (km) Brightness Sun altitude
Rises 19:20:31 0° 351° (N) 2,688 7.9 -19.3°
Reaches altitude 10° 19:22:41 10° 352° (N) 1,794 7.0 -19.6°
Maximum altitude 19:26:38 81° 81° (E) 546 3.7 -20.2°
Enters shadow 19:27:21 58° 156° (SSE) 627 3.9 -20.3°
